Location: Carnières
(50.1682°N, 3.3474°E)
Time: 12:52:27
(UTC+00:00)

Cosmos 1703 Rocket - Pass Details

Date: 23 May 2024
Orbit: 602 x 629 km, 82.5° (Epoch: 18 June)

Event Time Altitude Azimuth Distance (km) Brightness Sun altitude
Exits shadow 00:59:01 24° 155° (SSE) 1,296 4.8 -17.2°
Maximum altitude 01:01:20 47° 94° (E) 834 4.3 -17.1°
Drops below altitude 10° 01:05:37 10° 21° (NNE) 2,015 7.5 -16.9°
Sets 01:07:56 0° 15° (NNE) 2,930 8.8 -16.8°
